星链-2093 (STARLINK-2093 )

导读 | 星芒AI

STARLINK-2093 是 SpaceX 星链(Starlink)卫星互联网项目中的第2093颗卫星,属于低轨通信卫星群的一部分。该卫星旨在为全球用户提供高速、低延迟的互联网服务,特别服务于网络基础设施薄弱的地区。它运行在约550公里高的近地轨道,采用先进推进系统和激光通信技术,以提升网络稳定性和传输效率。作为星链计划的组成部分,STARLINK-2093 有助于构建更广泛的全球宽带网络覆盖。

基本信息
目录编号:
47374
目录名称:
STARLINK-2093
国际标识:
2021-005AB
轨道中心:
EARTH
卫星名称:
星链-2093
卫星全名:
星链-2093 (STARLINK-2093 )
卫星状态:
在轨 (已飞行1791 天)
发射日期:
2021-01-20 UTC
国别 :
美国 (US)
星等 :
--
轨道信息
数据来源 国际轨道数据
星历时间: 2025-12-15T23:35:09+0800
1天前
查看轨道信息
半长轴: 6925.319km
偏心率: 0.0001356
轨道倾角: 53.054°
近地点辐角 70.486°
升交点赤经 78.859°
平近点角 289.627°
近地点: 546.244km
远地点: 548.124km
周期: 95.592分钟
每日圈数: 15.064098
详细信息
固有亮度:
5
最大亮度:
2.5
卫星平台:
Starlink V1.0
覆盖范围:
全球
运营商:
太空探索技术公司
运营商所在国:
美国
制造商(研发单位):
太空探索技术公司
制造商所在国:
美国
使用方式:
暂无
卫星简介
星链(Starlink)计划是由太空探索技术公司(SpaceX)提出的一个巨型低轨卫星互联网星座项目,计划在2019年至2024年间在太空搭建由约1.2万颗卫星组成的“星链”网络,其中1584颗将部署在地球上空550千米处的近地轨道,并从2020年开始工作。该卫星仍在工作。
2D轨道图
3D轨道图
轨道高度分析图
轨道倾角分析图
轨道综合分析图
查看轨道综合分析图